Sierra Vista, AZ

6:44 PM MST on March 22, 2017 (GMT -0700)
Sierra Vista Municipal-Libby Army Air Field

Weather History for KFHU - August, 2013

Change the Weather History Date:

Wednesday, August 14, 2013

  Actual Average Record
Temperature  
Mean Temperature 81 °F -  
Max Temperature 91 °F 86 °F 96 °F (1996)
Min Temperature 71 °F 67 °F 57 °F (1990)
Cooling Degree Days 16    
Growing Degree Days 31 (Base 50)    
Moisture  
Dew Point 58 °F    
Average Humidity 51    
Maximum Humidity 69    
Minimum Humidity 28    
Precipitation  
Precipitation 0.03 in - - ()
Sea Level Pressure  
Sea Level Pressure 30.00 in    
Wind  
Wind Speed 8 mph (SW)    
Max Wind Speed 21 mph    
Max Gust Speed 28 mph    
Visibility 10 miles    
Events Rain , Thunderstorm    
Averages and records for this station are not official NWS values.
T = Trace of Precipitation, MM = Missing Value Source: NWS Daily Summary

Daily Weather History Graph

Daily Weather History Graph

Search for Another Location

Airport or City:

Trip Planner

Search our weather history database for the weather conditions in past years. The results will help you decide how hot, cold, wet, or windy it might be!

Date:

Astronomy

Aug. 14, 2013 Rise Set
Actual Time 5:46 AM MST 7:05 PM MST
Civil Twilight 5:20 AM MST 7:30 PM MST
Nautical Twilight 4:49 AM MST 8:01 PM MST
Astronomical Twilight 4:17 AM MST 8:33 PM MST
Moon 1:16 PM MST (8/14) No Moon Set
Length of Visible Light 14h 10m
Length of Day
13h 19m
First Quarter, 54% of the Moon is Illuminated
Aug 14
First Quarter
Aug 20
Full
Aug 28
Last Quarter
Sep 5
New
Sep 12
First Quarter

Hourly Weather History & Observations

Time (MST) Temp. Heat Index Dew Point Humidity Pressure Visibility Wind Dir Wind Speed Gust Speed Precip Events Conditions
12:55 AM 78.8 °F - 55.4 °F 44% 29.92 in 10.0 mi WSW 6.9 mph - N/A   Mostly Cloudy
1:55 AM 78.8 °F - 55.4 °F 44% 29.91 in 10.0 mi SW 13.8 mph - N/A   Mostly Cloudy
2:55 AM 73.4 °F - 57.2 °F 57% 29.92 in 10.0 mi East 4.6 mph - N/A   Overcast
3:55 AM 71.6 °F - 57.2 °F 60% 29.92 in 10.0 mi WNW 4.6 mph - N/A   Mostly Cloudy
4:55 AM 71.6 °F - 59.0 °F 64% 29.94 in 10.0 mi WSW 3.5 mph - N/A   Mostly Cloudy
5:55 AM 71.6 °F - 60.8 °F 69% 29.96 in 10.0 mi West 5.8 mph - N/A   Mostly Cloudy
6:52 AM 73.4 °F - 59.0 °F 61% 29.97 in 10.0 mi WSW 5.8 mph - N/A   Mostly Cloudy
6:55 AM 73.4 °F - 59.0 °F 61% 29.97 in 10.0 mi WSW 5.8 mph - N/A   Mostly Cloudy
7:55 AM 78.8 °F - 60.8 °F 54% 29.97 in 10.0 mi West 4.6 mph - N/A   Mostly Cloudy
8:55 AM 80.6 °F 81.1 °F 59.0 °F 48% 29.98 in 10.0 mi Calm Calm - N/A   Mostly Cloudy
9:55 AM 84.2 °F 82.8 °F 53.6 °F 35% 29.98 in 10.0 mi ENE 5.8 mph - N/A   Mostly Cloudy
10:55 AM 87.8 °F 85.7 °F 53.6 °F 31% 29.96 in 10.0 mi Variable 5.8 mph - N/A   Mostly Cloudy
11:55 AM 89.6 °F 87.3 °F 53.6 °F 29% 29.95 in 10.0 mi SE 6.9 mph - N/A   Mostly Cloudy
11:57 AM 91.4 °F 89.4 °F 55.4 °F 29% 30.16 in 10.0 mi ESE 9.2 mph - N/A Thunderstorm Mostly Cloudy
12:55 PM 91.4 °F 89.4 °F 55.4 °F 29% 29.92 in 10.0 mi Calm Calm - N/A Thunderstorm Mostly Cloudy
1:55 PM 91.4 °F 89.1 °F 53.6 °F 28% 29.90 in 10.0 mi Variable 3.5 mph - N/A   Mostly Cloudy
2:37 PM 87.8 °F 86.1 °F 55.4 °F 33% 30.11 in 10.0 mi West 13.8 mph - N/A Thunderstorm Mostly Cloudy
2:55 PM 87.8 °F 86.1 °F 55.4 °F 33% 29.90 in 10.0 mi WSW 15.0 mph - N/A Thunderstorm Thunderstorm
3:35 PM 80.6 °F 81.1 °F 59.0 °F 48% 30.14 in 10.0 mi West 8.1 mph - N/A Rain , Thunderstorm Light Thunderstorms and Rain
3:55 PM 77.0 °F - 60.8 °F 57% 29.95 in 10.0 mi ESE 13.8 mph 18.4 mph N/A Rain , Thunderstorm Light Thunderstorms and Rain
4:38 PM 78.8 °F - 66.2 °F 65% 30.12 in 10.0 mi South 5.8 mph - 0.02 in Rain Light Rain
4:56 PM 78.1 °F - 66.0 °F 66% 29.93 in 10.0 mi South 12.7 mph - 0.03 in Rain Light Rain
5:29 PM 77.0 °F - 62.6 °F 61% 30.10 in 10.0 mi SSE 16.1 mph - 0.00 in Thunderstorm Thunderstorm
5:56 PM 79.0 °F - 60.1 °F 52% 29.91 in 10.0 mi South 11.5 mph - 0.00 in Thunderstorm Thunderstorm
6:30 PM 78.8 °F - 57.2 °F 47% 30.12 in 10.0 mi SW 20.7 mph 27.6 mph N/A   Clear
6:56 PM 75.9 °F - 55.0 °F 48% 29.93 in 10.0 mi SW 16.1 mph 24.2 mph N/A   Clear
7:56 PM 75.0 °F - 57.9 °F 55% 29.93 in 10.0 mi NNE 4.6 mph - N/A   Clear
8:16 PM 73.4 °F - 60.8 °F 65% 30.14 in 10.0 mi NNE 11.5 mph - N/A Thunderstorm Thunderstorm
8:56 PM 73.9 °F - 57.0 °F 55% 30.01 in 10.0 mi NE 12.7 mph 21.9 mph N/A Thunderstorm Thunderstorm
9:31 PM 73.4 °F - 59.0 °F 61% 30.23 in 10.0 mi NE 9.2 mph - N/A   Mostly Cloudy
9:56 PM 72.0 °F - 59.0 °F 64% 30.03 in 10.0 mi NE 4.6 mph - N/A   Clear
10:55 PM 71.6 °F - 59.0 °F 64% 30.03 in 10.0 mi West 4.6 mph - N/A   Overcast
11:55 PM 73.4 °F - 59.0 °F 61% 29.99 in 10.0 mi SSE 5.8 mph - N/A   Overcast